Regional Weather Roundup
Issued by NWS Cleveland, OH

Home | Current Version | Previous Version | Graphics & Text | Print | Product List | Glossary On
Versions: 1 2 3 4 5 6 7 8 9 10 11 12 13 14 15 16 17 18 19 20 21 22 23 24 25 26 27 28 29 30 31 32 33 34 35 36 37 38 39 40 41 42 43 44 45 46 47 48 49 50
000
ASUS41 KCLE 240302
RWRCLE
OHIO REGIONAL WEATHER ROUNDUP
NATIONAL WEATHER SERVICE CLEVELAND, OH
1000 PM EST SUN NOV 23 2014

NOTE: "FAIR" INDICATES FEW OR NO CLOUDS BELOW 12,000 FEET WITH NO
SIGNIFICANT WEATHER AND/OR OBSTRUCTIONS TO VISIBILITY.

OHZ001>008-015>018-024>027-034-035-043-044-240400-
   NORTHWEST OHIO

CITY           SKY/WX    TMP DP  RH WIND       PRES   REMARKS
DEFIANCE       RAIN      52  50  93 SE13G21   29.29F FOG
FINDLAY        LGT RAIN  54  50  86 SE22G32   29.32F
TOLEDO EXPRESS RAIN      51  50  96 SE10G20   29.34F FOG
TOLEDO EXEC    LGT RAIN  53  50  89 SE16      29.36F
LIMA           LGT RAIN  54  51  90 SE22G35   29.30F
$$

OHZ009>014-019>023-028>033-038-089-240400-
   NORTHEAST OHIO

CITY           SKY/WX    TMP DP  RH WIND       PRES   REMARKS
CLE-HOPKINS    LGT RAIN  53  48  83 SE20G28   29.48F
CLE-LAKEFRONT  LGT RAIN  54  48  80 SE16G33   29.45F
CUY CO. ARPT   LGT RAIN  54  50  87 SE17G29   29.48F
LORAIN-ELYRIA  CLOUDY    53  50  89 S23G31    29.43F
ASHTABULA      LGT RAIN  51  43  74 SE20G28   29.60F
AKRON-CANTON   LGT RAIN  53  47  79 SE17G29   29.51F
WOOSTER        LGT RAIN N/A N/A N/A SE15G23   29.48F
MANSFIELD      LGT RAIN  53  50  89 SE23G39   29.42F
YOUNGSTOWN     LGT RAIN  50  45  83 SE17      29.58F
$$

OHZ042-051>053-060>062-070>072-077>081-240400-
  SOUTHWEST OHIO

CITY           SKY/WX    TMP DP  RH WIND       PRES   REMARKS
CINC-COVINGTON CLOUDY    57  53  86 SE20G32   29.32F
CINC-LUNKEN    LGT RAIN  56 N/A N/A S12G22    29.35F
HAMILTON       LGT RAIN  56  55  97 VRB7      29.33F FOG
DAYTON         HVY RAIN  56  54  93 SE22G30   29.32F FOG
WRIGHT-PAT AFB LGT RAIN  55  54  94 SE17      29.33F
DAYTON GENERAL RAIN      56  54  93 SE16G26   29.32F FOG
WILMINGTON     LGT RAIN  55  52  89 SE23G37   29.33F FOG
$$

OHZ036-037-039>041-045>050-054>059-063>069-073>076-082>088-240400-
  CENTRAL AND SOUTHEAST OHIO

CITY           SKY/WX    TMP DP  RH WIND       PRES   REMARKS
COLUMBUS       RAIN      54  50  86 SE21G29   29.40F
OSU AIRPORT    LGT RAIN  53  51  93 SE18      29.38F
BOLTON FIELD   NOT AVBL
RICKENBACK AFB NOT AVBL
NEWARK         LGT RAIN  54  51  90 SE13G24   29.43F
MARION         LGT RAIN  53  50  89 SE22G30   29.37F FOG
LANCASTER      LGT RAIN  54  52  93 SE16G29   29.42F
ZANESVILLE     LGT RAIN  52  49  89 SE17      29.48F FOG
NEW PHILLY     LGT RAIN  53  48  83 SE14      29.52F
$$


USA.gov is the U.S. government's official web portal to all federal, state and local government web resources and services.